�������l�o���
Date,Time,MP-1(��Sv/h),MP-2(��Sv/h),MP-3(��Sv/h),MP-4(��Sv/h),MP-5(��Sv/h),MP-6(��Sv/h),MP-7(��Sv/h),MP-8(��Sv/h),����,����(m/s),���J
2014/01/20,00:00,2.6,4.6,5.1,4.6,4.9,2.5,2.6,2.9,�쐼,2.9,��
2014/01/20,00:10,2.6,4.6,5.1,4.6,4.9,2.5,2.6,2.9,�쐼,3.1,��
2014/01/20,00:20,2.6,4.6,5.1,4.6,4.9,2.5,2.6,2.9,���쐼,3.9,��
2014/01/20,00:30,2.6,4.6,5.1,4.6,4.9,2.5,2.6,2.9,���쐼,4.1,��
2014/01/20,00:40,2.6,4.6,5.1,4.6,4.9,2.5,2.6,2.9,���쐼,4.1,��
2014/01/20,00:50,2.6,4.6,5.1,4.6,4.9,2.5,2.6,2.9,���쐼,4.1,��
2014/01/20,01:00,2.6,4.6,5.1,4.6,4.9,2.5,2.6,2.9,�쐼,4.0,��
2014/01/20,01:10,2.6,4.6,5.1,4.6,4.9,2.5,2.7,2.9,�쐼,4.1,��
2014/01/20,01:20,2.6,4.6,5.1,4.6,4.9,2.5,2.6,2.9,�쐼,3.7,��
2014/01/20,01:30,2.6,4.6,5.1,4.6,4.9,2.5,2.6,2.9,���쐼,4.4,��
2014/01/20,01:40,2.6,4.6,5.1,4.6,4.9,2.5,2.7,2.9,�쐼,4.5,��
2014/01/20,01:50,2.6,4.6,5.1,4.6,4.9,2.5,2.7,2.9,�쐼,4.2,��
2014/01/20,02:00,2.6,4.6,5.1,4.6,4.9,2.5,2.7,2.9,���쐼,4.6,��
2014/01/20,02:10,2.6,4.6,5.1,4.6,4.9,2.5,2.6,2.9,���쐼,4.4,��
2014/01/20,02:20,2.6,4.6,5.1,4.6,4.9,2.5,2.6,2.9,���쐼,4.4,��
2014/01/20,02:30,2.6,4.6,5.1,4.6,4.9,2.5,2.6,2.9,��,5.4,��
2014/01/20,02:40,2.6,4.6,5.1,4.6,4.9,2.5,2.7,2.9,��,6.0,��
2014/01/20,02:50,2.6,4.6,5.1,4.6,4.9,2.5,2.6,2.9,��,5.6,��
2014/01/20,03:00,2.6,4.6,5.1,4.6,4.9,2.5,2.6,2.9,��,5.7,��
2014/01/20,03:10,2.6,4.6,5.1,4.6,4.9,2.5,2.6,2.9,��,6.0,��
2014/01/20,03:20,2.6,4.6,5.1,4.6,4.9,2.5,2.6,2.9,��,5.4,��
2014/01/20,03:30,2.6,4.6,5.1,4.6,4.9,2.5,2.6,2.9,���쐼,5.4,��
2014/01/20,03:40,2.6,4.6,5.1,4.6,4.9,2.5,2.6,2.9,��,3.6,��
2014/01/20,03:50,2.6,4.6,5.1,4.6,4.9,2.5,2.6,2.9,���쐼,2.7,��
2014/01/20,04:00,2.6,4.6,5.1,4.6,4.9,2.5,2.6,2.9,���쐼,2.3,��
2014/01/20,04:10,2.6,4.6,5.1,4.6,4.9,2.5,2.6,2.9,�쐼,2.1,��
2014/01/20,04:20,2.6,4.6,5.1,4.6,4.9,2.5,2.6,2.9,�쐼,2.5,��
2014/01/20,04:30,2.6,4.6,5.1,4.6,4.9,2.5,2.6,2.9,�쐼,2.7,��
2014/01/20,04:40,2.6,4.6,5.1,4.6,4.9,2.5,2.6,2.9,��쐼,2.3,��
2014/01/20,04:50,2.6,4.6,5.1,4.6,4.9,2.5,2.6,2.9,��쐼,1.8,��
2014/01/20,05:00,2.6,4.6,5.1,4.6,4.9,2.5,2.6,2.9,��,1.7,��
2014/01/20,05:10,2.6,4.6,5.1,4.6,4.9,2.5,2.6,2.9,��쓌,1.9,��
2014/01/20,05:20,2.6,4.6,5.1,4.6,4.9,2.5,2.6,2.9,��쓌,2.7,��
2014/01/20,05:30,2.6,4.6,5.1,4.6,4.9,2.5,2.6,2.9,��,1.8,��
2014/01/20,05:40,2.6,4.6,5.1,4.6,4.9,2.5,2.6,2.9,��,2.4,��
2014/01/20,05:50,2.6,4.6,5.1,4.6,4.9,2.5,2.6,2.9,��쐼,2.2,��
2014/01/20,06:00,2.6,4.6,5.1,4.6,4.9,2.5,2.6,2.9,��쐼,2.5,��
2014/01/20,06:10,2.6,4.6,5.1,4.6,4.9,2.5,2.6,2.9,��쐼,3.0,��
2014/01/20,06:20,2.6,4.6,5.1,4.6,4.9,2.5,2.6,2.9,��쐼,3.4,��
2014/01/20,06:30,2.6,4.6,5.1,4.6,4.9,2.5,2.6,2.9,��쐼,3.7,��
2014/01/20,06:40,2.6,4.6,5.1,4.6,4.9,2.5,2.6,2.9,��쐼,4.2,��
2014/01/20,06:50,2.6,4.6,5.1,4.6,4.9,2.5,2.6,2.9,��쐼,4.5,��
2014/01/20,07:00,2.6,4.6,5.1,4.6,4.9,2.5,2.6,2.9,��쐼,4.9,��
2014/01/20,07:10,2.6,4.6,5.1,4.6,4.9,2.5,2.6,2.9,��쐼,4.9,��
2014/01/20,07:20,2.6,4.6,5.1,4.6,4.9,2.5,2.6,2.9,��쐼,5.4,��
2014/01/20,07:30,2.6,4.6,5.1,4.6,4.9,2.5,2.6,2.9,��쐼,5.6,��
2014/01/20,07:40,2.6,4.6,5.1,4.6,4.9,2.5,2.6,2.9,��쐼,6.0,��
2014/01/20,07:50,2.6,4.6,5.1,4.6,4.9,2.5,2.6,2.9,��쐼,6.0,��
2014/01/20,08:00,2.6,4.6,5.1,4.6,4.9,2.5,2.6,2.9,��쐼,5.8,��
2014/01/20,08:10,2.6,4.6,5.1,4.6,4.9,2.5,2.6,2.9,��쐼,6.2,��
2014/01/20,08:20,2.6,4.6,5.1,4.6,4.9,2.5,2.6,2.9,��쐼,5.8,��
2014/01/20,08:30,2.6,4.6,5.1,4.6,4.9,2.5,2.6,2.9,��쐼,5.5,��
2014/01/20,08:40,2.6,4.6,5.1,4.6,4.9,2.5,2.7,2.9,��쐼,5.5,��
2014/01/20,08:50,2.6,4.6,5.1,4.6,4.9,2.5,2.7,2.9,��쐼,5.1,��
2014/01/20,09:00,2.6,4.6,5.1,4.6,4.9,2.5,2.7,2.9,��쐼,5.6,��
2014/01/20,09:10,2.6,4.6,5.1,4.6,4.9,2.5,2.7,2.9,��쐼,6.4,��
2014/01/20,09:20,2.6,4.6,5.1,4.7,4.9,2.5,2.7,2.9,��쐼,7.1,��
2014/01/20,09:30,2.6,4.6,5.1,4.7,4.9,2.5,2.7,2.9,��쐼,6.5,��
2014/01/20,09:40,2.6,4.6,5.1,4.7,4.9,2.5,2.7,2.9,�쐼,5.0,��
2014/01/20,09:50,2.6,4.6,5.1,4.7,4.9,2.5,2.7,2.9,�쐼,5.1,��
2014/01/20,10:00,2.6,4.6,5.1,4.6,4.9,2.5,2.7,2.9,�쐼,4.4,��
2014/01/20,10:10,2.6,4.6,5.2,4.6,4.9,2.5,2.7,2.9,�쐼,3.8,��
2014/01/20,10:20,-,4.6,5.1,4.7,4.9,2.5,2.7,2.9,��,2.9,��
2014/01/20,10:30,-,4.6,5.1,4.7,4.9,2.5,2.7,2.9,��,3.1,��
2014/01/20,10:40,2.6,4.6,5.2,4.7,4.9,2.5,2.7,2.9,��쓌,3.4,��
2014/01/20,10:50,2.6,4.6,5.2,4.7,4.9,2.5,2.7,2.9,��쓌,5.0,��
2014/01/20,11:00,2.6,4.6,5.2,4.7,4.9,2.5,2.7,2.9,��쓌,6.0,��
2014/01/20,11:10,2.6,4.6,5.2,4.7,4.9,2.5,2.7,2.9,��쓌,5.1,��
2014/01/20,11:20,-,4.6,5.2,4.7,4.9,2.5,2.7,2.9,�쓌,4.3,��
2014/01/20,11:30,2.6,4.6,5.2,4.7,4.9,2.5,2.7,2.9,�쓌,5.0,��
2014/01/20,11:40,2.6,4.6,5.2,4.7,4.9,2.5,2.7,2.9,���쓌,3.7,��
2014/01/20,11:50,2.6,4.6,5.2,4.7,4.9,2.5,2.7,2.9,���쓌,3.0,��
2014/01/20,12:00,2.6,4.6,5.2,4.7,4.9,2.5,2.7,2.9,���쓌,2.9,��
2014/01/20,12:10,2.6,4.6,5.2,4.7,4.9,2.5,2.7,2.9,�쓌,2.8,��
2014/01/20,12:20,2.6,4.6,5.2,4.7,4.9,2.5,2.7,2.9,��쓌,4.3,��
2014/01/20,12:30,2.6,4.6,5.2,4.7,4.9,2.5,2.7,2.9,��,6.7,��
2014/01/20,12:40,2.6,4.6,5.2,4.7,4.9,2.5,2.7,2.9,��쓌,6.5,��
2014/01/20,12:50,2.6,4.6,5.2,4.7,4.9,2.5,2.7,2.9,��쓌,8.5,��
2014/01/20,13:00,2.6,4.6,5.2,4.7,4.9,2.5,2.7,2.9,��쓌,7.2,��
2014/01/20,13:10,2.6,4.6,5.2,4.7,4.9,2.5,2.7,2.9,��쓌,7.7,��
2014/01/20,13:20,2.6,4.6,5.2,4.7,4.9,2.5,2.7,2.9,��쓌,7.5,��
2014/01/20,13:30,2.6,-,5.2,4.7,4.9,2.5,2.7,2.9,��쓌,6.8,��
2014/01/20,13:40,2.6,-,5.2,4.7,4.9,2.5,2.7,2.9,��쓌,8.3,��
2014/01/20,13:50,2.6,4.6,5.2,4.7,4.9,2.5,2.7,2.9,��쓌,8.0,��
2014/01/20,14:00,2.6,4.6,5.2,4.7,4.9,2.5,2.7,2.9,��쓌,7.5,��
2014/01/20,14:10,2.6,4.6,5.2,4.7,4.9,2.5,2.7,2.9,��쓌,8.2,��
2014/01/20,14:20,2.6,4.6,5.2,4.7,4.9,2.5,2.7,2.9,��쓌,7.4,��
2014/01/20,14:30,2.6,-,5.2,4.7,4.9,2.5,2.7,2.9,��쓌,7.4,��
2014/01/20,14:40,2.6,-,5.2,4.7,4.9,2.5,2.7,2.9,��,6.9,��
2014/01/20,14:50,2.6,4.6,5.2,4.7,4.9,2.5,2.7,2.9,��,7.2,��
2014/01/20,15:00,2.6,4.6,5.2,4.7,4.9,2.5,2.7,2.9,��쓌,6.3,��
2014/01/20,15:10,2.6,4.6,5.2,4.7,4.9,2.5,2.7,2.9,��쓌,7.5,��
2014/01/20,15:20,2.6,4.6,5.2,4.7,4.9,2.5,2.7,2.9,��,7.1,��
2014/01/20,15:30,2.6,4.6,5.2,4.7,4.9,2.5,2.7,2.9,��쓌,7.4,��
2014/01/20,15:40,2.6,4.6,5.2,4.7,4.9,2.5,2.7,2.9,��,6.3,��
2014/01/20,15:50,2.6,4.6,5.2,4.7,4.9,2.5,2.7,2.9,��,6.8,��
2014/01/20,16:00,2.6,4.6,5.2,4.7,4.9,2.5,2.7,2.9,��,6.6,��
2014/01/20,16:10,2.6,4.6,5.2,4.7,4.9,2.5,2.7,2.9,��,7.7,��
2014/01/20,16:20,2.6,4.6,5.2,4.7,4.9,2.5,2.7,2.9,��,7.7,��
2014/01/20,16:30,2.6,4.6,5.2,4.7,4.9,2.5,2.7,2.9,��,6.9,��
2014/01/20,16:40,2.6,4.6,5.2,4.7,4.9,2.5,2.7,2.9,��,6.7,��
2014/01/20,16:50,2.6,4.6,5.2,4.7,4.9,2.5,2.7,2.9,��,6.6,��
2014/01/20,17:00,2.6,4.6,5.2,4.7,4.9,2.5,2.7,2.9,��,6.9,��
2014/01/20,17:10,2.6,4.6,5.2,4.7,4.9,2.5,2.7,2.9,��,6.8,��
2014/01/20,17:20,2.6,4.6,5.2,4.7,4.9,2.5,2.7,2.9,��쐼,7.4,��
2014/01/20,17:30,2.6,4.6,5.2,4.7,4.9,2.5,2.7,2.9,��쐼,6.5,��
2014/01/20,17:40,2.6,4.6,5.2,4.7,4.9,2.5,2.7,2.9,��쐼,7.4,��
2014/01/20,17:50,2.6,4.6,5.2,4.7,4.9,2.5,2.7,2.9,��쐼,7.1,��
2014/01/20,18:00,2.6,4.6,5.2,4.7,4.9,2.5,2.7,2.9,��쐼,6.7,��
2014/01/20,18:10,2.6,4.6,5.2,4.7,4.9,2.5,2.7,2.9,��쐼,6.1,��
2014/01/20,18:20,2.6,4.6,5.2,4.7,4.9,2.5,2.7,2.9,��쐼,6.4,��
2014/01/20,18:30,2.6,4.6,5.2,4.7,4.9,2.5,2.7,2.9,��,6.9,��
2014/01/20,18:40,2.6,4.6,5.2,4.7,4.9,2.5,2.7,2.9,��쐼,6.5,��
2014/01/20,18:50,2.6,4.6,5.2,4.7,4.9,2.5,2.7,2.9,��쐼,6.7,��
2014/01/20,19:00,2.6,4.6,5.2,4.7,4.9,2.5,2.7,2.9,��쐼,7.1,��
2014/01/20,19:10,2.6,4.6,5.2,4.7,4.9,2.5,2.7,2.9,��쐼,6.5,��
2014/01/20,19:20,2.6,4.6,5.2,4.7,4.9,2.5,2.7,2.9,��쐼,7.1,��
2014/01/20,19:30,2.6,4.6,5.2,4.7,4.9,2.5,2.7,2.9,��쐼,6.6,��
2014/01/20,19:40,2.6,4.6,5.1,4.7,4.9,2.5,2.7,2.9,��쐼,6.4,��
2014/01/20,19:50,2.6,4.6,5.2,4.7,4.9,2.5,2.7,2.9,��쐼,7.4,��
2014/01/20,20:00,2.6,4.6,5.1,4.7,4.9,2.5,2.7,2.9,��쐼,7.2,��
2014/01/20,20:10,2.6,4.6,5.1,4.7,4.9,2.5,2.7,2.9,��쐼,7.1,��
2014/01/20,20:20,2.6,4.6,5.1,4.7,4.9,2.5,2.7,2.9,��쐼,6.3,��
2014/01/20,20:30,2.6,4.6,5.2,4.7,4.9,2.5,2.7,2.9,��쐼,5.8,��
2014/01/20,20:40,2.6,4.6,5.2,4.7,4.9,2.5,2.7,2.9,��쐼,5.7,��
2014/01/20,20:50,2.6,4.6,5.2,4.7,4.9,2.5,2.7,2.9,��쐼,4.6,��
2014/01/20,21:00,2.6,4.6,5.2,4.7,4.9,2.5,2.7,2.9,��,4.9,��
2014/01/20,21:10,2.6,4.6,5.2,4.7,4.9,2.5,2.7,2.9,��,3.9,��
2014/01/20,21:20,2.6,4.6,5.2,4.7,4.9,2.5,2.7,2.9,��,4.2,��
2014/01/20,21:30,2.6,4.6,5.2,4.7,4.9,2.5,2.7,2.9,��,4.7,��
2014/01/20,21:40,2.6,4.6,5.1,4.7,4.9,2.5,2.7,2.9,��쐼,4.2,��
2014/01/20,21:50,2.6,4.6,5.1,4.7,4.9,2.5,2.7,2.9,��,5.7,��
2014/01/20,22:00,2.6,4.6,5.2,4.7,4.9,2.5,2.7,2.9,��쐼,5.0,��
2014/01/20,22:10,2.6,4.6,5.1,4.7,4.9,2.5,2.7,2.9,��쐼,5.2,��
2014/01/20,22:20,2.6,4.6,5.1,4.7,4.9,2.5,2.7,2.9,��쐼,4.7,��
2014/01/20,22:30,2.6,4.6,5.1,4.7,4.9,2.5,2.7,2.9,��쐼,3.5,��
2014/01/20,22:40,2.6,4.6,5.1,4.7,4.9,2.5,2.7,2.9,�쐼,1.6,��
2014/01/20,22:50,2.6,4.6,5.1,4.7,4.9,2.5,2.7,2.9,�쐼,0.8,��
2014/01/20,23:00,2.6,4.6,5.1,4.7,4.9,2.5,2.7,2.9,��쐼,1.5,��
2014/01/20,23:10,2.6,4.6,5.1,4.7,4.9,2.5,2.7,2.9,��쐼,2.5,��
2014/01/20,23:20,2.6,4.6,5.1,4.7,4.9,2.5,2.7,2.9,��쓌,3.0,��
2014/01/20,23:30,2.6,4.6,5.1,4.7,4.9,2.5,2.7,2.9,��쓌,4.3,��
2014/01/20,23:40,2.6,4.6,5.1,4.7,4.9,2.5,2.7,2.9,��쓌,3.4,��
2014/01/20,23:50,2.6,4.6,5.1,4.7,4.9,2.5,2.7,2.9,��,2.9,��
